STARLINK-2264

Last updated on Sat Apr 24 2021 00:02:02 GMT+0000 (Coordinated Universal Time)

1 48028U 21024BD 21113.25001157 .00067138 00000-0 47882-3 0 9997 2 48028 53.0483 55.6488 0000964 66.6263 109.7085 15.73203154 1823

Satellite not in orbit